User: anonymous   Login
Location: Columbia
(38.9520°N, 92.3340°W)
Time: 09:59:28
(UTC-05:00)
Language:

CZ-4B R/B - Orbit

View from above orbital plane
View from above orbital plane
View from above satellite
View from above satellite

Ground track
Ground track

The orbit data is extracted from the following two-line orbital elements,

1 29093U 06015B   18172.91988261 +.00002403 +00000-0 +54277-4 0  9996
2 29093 097.5290 299.1707 0061370 066.9291 293.8410 15.42304822674377
Epoch (UTC): 21 June 2018 22:04:37
Eccentricity: 0.0061370
inclination: 97.5290°
perigee height: 397 km
apogee height: 481 km
right ascension of ascending node: 299.1707°
argument of perigee: 66.9291°
revolutions per day: 15.42304822
mean anomaly at epoch: 293.8410°
orbit number at epoch: 67437

The dashed part of the orbit path shows where the satellite is in the earth's shadow,  

DLR